www.pogodaiklimat.ru

Погода и климат >> Архив погоды >> Южная Африка >> Макатини


ПОГОДА в Макатини

  • Прогноз погоды в Макатини
  • Монитор погоды в Макатини

АРХИВ ПОГОДЫ в Макатини

Время (UTC), дата Ветер
(напр.,м/с)
 
Видим.   Явления Облачность Т
(С)
Тd
(С)
f
(%)
Тe
(С)
Тes
(С)
Комфортность P
(гПа)
Po
(гПа)
Тmin
(С)
Tmax
(С)
R
(мм)
R24
(мм)
S
(см)
21 16.09 СВ 3 н/о н/о +22.1 +18.5 80 +27 +27 душно 1020.4 1013.0 +22.0 +30.3
00 17.09 С 4 н/о н/о +21.6 +18.0 80 +26 +26 душно 1019.7 1012.3 +21.6 +30.3
03 17.09 С 2 н/о н/о +20.8 +18.7 88 +26 +26 душно 1019.4 1012.0 +20.8 +30.3
06 17.09 С 4 н/о н/о +22.7 +17.7 73 +28 +28 душно 1019.6 1012.3 +20.8 0.2
09 17.09 С 4 н/о н/о +27.3 +18.2 58 +32 +32 очень
душно
1018.2 1011.0 +20.8 +27.5
12 17.09 С 3 30 км ясно +31.5 +18.4 46 +36 +47 очень
душно
1015.2 1008.1 +20.8 +31.7
15 17.09 СВ 2 н/о н/о +30.8 +17.4 45 +35 +35 очень
душно
1014.9 1007.8 +30.8 +32.6
18 17.09 СВ 3 н/о н/о +22.1 +17.5 75 +27 +27 душно 1017.6 1010.3 +22.1 +32.6
21 17.09 С 2 н/о н/о +20.3 +17.5 84 +24 +24 комфорт 1018.0 1010.6 +20.2 +32.6
00 18.09 С 2 н/о н/о +19.6 +17.7 89 +23 +23 комфорт 1017.0 1009.6 +19.6 +32.6
03 18.09 С 2 н/о н/о +18.6 +17.4 93 +20 +20 1016.7 1009.3 +18.5 +32.6
06 18.09 С 3 25 км 10/10 1000 м
[]
+22.2 +18.4 79 +27 +27 душно 1017.3 1010.0 +18.5
09 18.09 СВ 2 н/о н/о +30.3 +17.9 47 +35 +35 очень
душно
1017.0 1009.9 +18.5 +30.9
12 18.09 ЮВ 5 30 км ясно +32.2 +18.3 44 +37 +43 очень
душно
1015.4 1008.3 +18.5 +35.5
15 18.09 ЮВ 4 н/о н/о +26.0 +17.2 58 +30 +30 душно 1018.1 1010.9 +26.0 +35.5
18 18.09 ЮВ 2 н/о н/о +22.2 +17.6 75 +27 +27 душно 1020.9 1013.5 +22.2 +35.5
21 18.09 СЗ 1 н/о н/о +19.6 +16.8 84 +23 +23 комфорт 1021.7 1014.3 +19.6 +35.5
00 19.09 ЮЗ 1 н/о н/о +20.5 +16.9 80 +25 +25 комфорт 1022.1 1014.7 +19.0 +35.5
03 19.09 Ю 1 н/о н/о +20.9 +17.7 82 +26 +26 душно 1022.3 1014.9 +19.0 +35.5
06 19.09 З 1 н/о н/о +25.2 +18.5 66 +30 +30 душно 1023.5 1016.2 +19.0
09 19.09 ЮВ 1 н/о н/о +29.1 +17.5 50 +33 +33 очень
душно
1021.9 1014.7 +19.0 +29.1
12 19.09 ЮВ 4 н/о н/о +27.0 +18.4 59 +32 +32 очень
душно
1020.1 1012.9 +19.0 +30.5
15 19.09 В 5 н/о н/о +24.7 +17.3 63 +29 +29 душно 1020.9 1013.6 +24.7 +30.5
18 19.09 СВ 3 н/о н/о +22.9 +18.3 75 +29 +29 очень
душно
1022.6 1015.2 +22.9 +30.5
21 19.09 СВ 2 н/о н/о +22.5 +18.5 78 +28 +28 душно 1022.9 1015.5 +22.5 +30.5
00 20.09 С 2 н/о н/о +22.0 +18.2 79 +27 +27 душно 1021.7 1014.3 +21.9 +30.5
03 20.09 С 2 н/о н/о +21.2 +18.2 83 +25 +25 комфорт 1020.6 1013.2 +21.1 +30.5
06 20.09 С 3 н/о н/о +22.9 +18.1 74 +28 +28 душно 1020.4 1013.1 +20.9
09 20.09 СВ 4 н/о н/о +28.8 +17.8 51 +33 +33 очень
душно
1017.7 1010.5 +20.9 +28.8
12 20.09 СВ 4 30 км ясно +31.6 +17.4 43 +36 +44 очень
душно
1014.2 1007.1 +20.9 +31.9
15 20.09 СВ 4 н/о н/о +28.0 +17.1 52 +32 +32 душно 1014.1 1006.9 +28.0 +32.0
18 20.09 СВ 4 н/о н/о +22.7 +16.8 69 +27 +27 душно 1015.7 1008.4 +22.7 +32.0
21 20.09 С 3 н/о н/о +22.0 +18.0 78 +27 +27 душно 1016.2 1008.9 +21.5 +32.0
00 21.09 С 3 н/о н/о +22.3 +18.5 79 +28 +28 душно 1014.9 1007.6 +21.5 +32.0
03 21.09 С 3 н/о н/о +20.3 +17.1 82 +24 +24 комфорт 1014.5 1007.1 +20.3 +32.0
06 21.09 С 4 30 км ясно +22.7 +16.8 69 +27 +31 душно 1014.8 1007.5 +20.2
09 21.09 С 3 н/о н/о +31.2 +17.4 44 +35 +35 очень
душно
1012.8 1005.7 +20.2 +31.2
12 21.09 СВ 4 н/о н/о +35.8 +16.4 32 +38 +38 очень
душно
1009.3 1002.3 +20.2 +35.8
15 21.09 СВ 4 н/о н/о +33.4 +15.7 35 +36 +36 очень
душно
1009.0 1002.0 +33.4 +36.5
18 21.09 СВ 4 н/о н/о +24.3 +18.3 69 +29 +29 душно 1011.9 1004.7 +24.3 +36.5
21 21.09 С 3 н/о н/о +22.3 +17.9 76 +27 +27 душно 1012.3 1005.0 +22.3 +36.5
00 22.09 С 3 н/о н/о +20.7 +17.9 84 +25 +25 комфорт 1011.2 1003.9 +20.7 +36.5
03 22.09 С 3 н/о н/о +19.6 +16.6 83 +22 +22 комфорт 1010.9 1003.5 +19.4 +36.5
06 22.09 С 2 н/о н/о +24.4 +17.0 63 +28 +28 душно 1011.6 1004.4 +19.3
09 22.09 В 1 н/о н/о +33.2 +15.1 34 +35 +35 душно 1011.1 1004.1 +19.3 +33.2
12 22.09 ЮВ 5 н/о н/о +31.7 +18.9 47 +37 +37 очень
душно
1008.9 1001.9 +19.3 +35.3
15 22.09 ЮВ 4 н/о н/о +25.6 +18.6 65 +30 +30 душно 1010.1 1002.9 +25.6 +35.3
18 22.09 Ю 4 н/о н/о +23.0 +18.4 75 +29 +29 очень
душно
1014.0 1006.7 +22.8 +35.3
21 22.09 Ю 3 н/о н/о +21.9 +16.0 69 +26 +26 душно 1016.0 1008.7 +21.9 +35.3
00 23.09 Ю 4 н/о н/о +19.9 +15.2 74 +22 +22 комфорт 1016.6 1009.2 +19.9 +35.3
03 23.09 Ю 2 н/о н/о +18.7 +13.1 70 +20 +20 1018.5 1011.1 +18.7 +35.3
09 23.09 Ю 5 н/о н/о +19.9 +8.4 47 +21 +21 комфорт 1022.8 1015.4 +18.2 +19.9
15 23.09 Ю 4 н/о н/о +20.4 +6.1 39 +21 +21 комфорт 1023.3 1015.9 +20.4 +21.3
18 23.09 Ю 4 н/о н/о +19.3 +11.2 59 +20 +20 1025.4 1017.9 +19.3 +21.3

 

Местоположение метеостанции Макатини (Южная Африка): широта -27.38 долгота 32.18 высота над уровнем моря 63 м.

В архиве по умолчанию представлена погода в Макатини за последнюю неделю. Архивные данные за месяц целиком и за предыдущие месяцы, начиная с января 2011 года, Вы можете получить, выбрав интересующий диапазон дат из раскрывающегося списка и нажав кнопку "Ввод!".


*Определитесь, кто Вы:
робот инопланетянин человек

Внимание! Время в таблицах - всемирное. Для получения местного времени необходимо прибавить поправку, которая равна 2 ч.

Смотрите также архив погоды в соседних городах и на ближайших метеорологических станциях:

Погода в Мбазване (Южная Африка) (43 км)
Погода в Ндзевейне (Свазиленд) (52 км)
Погода в Понголе (Южная Африка) (57 км)
Погода в Биг-Бенде (Свазиленд) (63 км)
Погода в Иерихоне (Свазиленд) (78 км)
Погода на Дамбе Lubovane (Свазиленд) (86 км)
Погода на Станции Charters Creek (Южная Африка) (94 км)
Погода в Нхлангано (Свазиленд) (100 км)
Погода в Моти (Свазиленд) (106 км)
Погода в Ситеки (Свазиленд) (108 км)

Пояснения к столбцам:

Ветер - указаны скорость ветра в м/с - средняя за 10 мин, порывы в срок и между сроками (в фигурных скобках) и направление, откуда дует ветер: С - северный, СВ - северо-восточный, В - восточный, ЮВ - юго-восточный, Ю - южный, ЮЗ - юго-западный, З - западный, СЗ - северо-западный.
Видимость - горизонтальная дальность видимости в метрах или километрах. При видимости от 1 до 10 км при отсутствии осадков обычно наблюдается дымка, при ухудшении видимости до 1 км и менее - туман. В сухую погоду видимость может ухудшаться дымом, пылью или мглою.
Явления - указаны атмосферные явления, наблюдавшиеся в срок или в последний час перед сроком; фигурными скобками обозначены явления, наблюдавшиеся между сроками (за 1-3 часа до срока); квадратными скобками обозначены град или гололедные отложения с указанием их диаметра в мм.
Облачность - указаны через наклонную черту общая и нижняя облачность в баллах и высота нижней границы облаков в метрах; квадратными скобками обозначены формы облаков: Ci - перистые, Cs - перисто-слоистые, Cc - перисто-кучевые, Ac - высококучевые, As - высокослоистые, Sc - слоисто-кучевые, Ns - слоисто-дождевые, Cu - кучевые, Cb - кучево-дождевые. Подробнее классификацию облаков см. в Атласе облаков (PDF).
T - Температура воздуха - температура, измеренная на высоте 2 м над землей.
Td - Температура точки росы - температура, при понижении до которой содержащийся в воздухе водяной пар достигнет насыщения.
f - Относительная влажность воздуха - влажноcть воздуха, измеренная на высоте 2 м над землей.
Te - Эффективная температура - температура, которую ощущает одетый по сезону человек в тени. Характеристика душности погоды. При расчете учитывается влияние влажности воздуха и скорости ветра на теплоощущения человека.
Tes - Эффективная температура на солнце - температура, которую ощущает человек, с поправкой на солнечный нагрев. Характеристика знойности погоды. Зависит от высоты солнца над горизонтом, облачности и скорости ветра. Ночью, в пасмурную погоду, а также при ветре 12 м/с и более поправка равна нулю.
P - Атмосферное давление - приведенное к уровню моря атмосферное давление.
Po - Атмосферное давление - измеренное на уровне метеостанции атмосферное давление.
Tmin - Минимальная температура - минимум температуры воздуха на высоте 2 м над землей.
Tmax - Максимальная температура - максимум температуры воздуха на высоте 2 м над землей.
R - Количество осадков - Количество выпавших осадков за период времени, мм. При наведении курсора мыши на число - период времени, за который выпало указанное количество осадков.
R24 - Количество осадков - Количество выпавших осадков за 24 часа, мм.
S - Снежный покров - Высота снежного покрова, см. При наведении курсора мыши на число - состояние снежного покрова и степень покрытия местности в баллах.